Location: Elmont
(33.4229°N, 96.6378°W)
Time: 15:55:16
(UTC+00:00)

Daily predictions for brighter satellites

Satellite Brightness Start Highest point End
(mag) Time Altitude Azimuth Time Altitude Azimuth Time Altitude Azimuth
JB-3 4.4 12:00:18 10° SSE 12:04:21 85° E 12:08:26 10° N
CZ-2D R/B 3.7 12:01:26 10° NNE 12:05:02 60° E 12:08:38 10° S
Cosmos 1452 Rocket 4.3 12:02:06 10° N 12:07:13 52° ENE 12:12:18 10° SSE
Cosmos 2151 3.7 12:03:12 10° S 12:07:16 55° E 12:11:23 10° NNE
ARIANE 5 R/B 3.4 12:03:54 10° NNW 12:08:14 27° WNW 12:12:34 10° SW
Cosmos 2034 Rocket 4.5 12:02:45 10° SW 12:08:32 37° WNW 12:14:18 10° NNW
NOAA 12 4.0 12:04:02 10° N 12:09:14 63° WNW 12:14:24 10° SSW
BREEZE-M R/B 4.0 12:04:17 14° NW 12:10:27 55° NNE 12:14:12 10° ESE
USA 229 DEB 4.2 12:06:32 13° WSW 12:11:04 31° NW 12:16:49 10° NNE
USA 229 4.2 12:06:27 13° WSW 12:11:07 31° NW 12:16:53 10° NNE
ARGOS 3.2 12:10:18 10° N 12:15:35 59° WNW 12:20:50 10° SSW
Cosmos 1812 4.0 12:15:45 18° W 12:15:51 18° W 12:18:24 10° SW
CZ-2C R/B 3.4 12:12:34 10° NNE 12:16:18 57° E 12:20:03 10° S
Cosmos 2278 Rocket 3.8 12:11:37 10° N 12:16:44 34° ENE 12:21:49 10° SE
Cosmos 1825 Rocket 4.0 12:12:48 10° SSW 12:16:52 38° W 12:20:56 10° NNW
SJ-11-01 4.3 12:12:21 10° NNE 12:17:02 85° ESE 12:21:43 10° SSW
Cosmos 1933 3.4 12:13:24 10° NNW 12:17:15 54° W 12:21:06 10° S
Cosmos 2237 Rocket 2.4 12:12:27 10° SSW 12:18:06 76° ESE 12:23:45 10° NNE
SL-08 R/B 3.3 12:14:57 10° S 12:19:37 58° W 12:24:13 10° NNW
Sakura Rocket 4.2 12:16:02 10° WSW 12:20:09 34° S 12:23:36 10° ESE
Meteor 2-3 Rocket 4.3 12:16:50 10° SW 12:21:49 33° WNW 12:26:50 10° NNW
ATLAS 5 CENTAUR R/B 4.0 12:20:08 10° SSE 12:22:40 20° ESE 12:25:15 10° ENE
Cosmos 1862 3.5 12:21:14 10° SSW 12:24:52 43° W 12:28:33 10° N
Cosmos 1500 3.3 12:23:02 10° S 12:26:34 70° E 12:30:06 10° NNE
SJ-7 4.4 12:23:51 10° NNE 12:27:58 88° WNW 12:32:02 10° SSW
Cosmos 1544 2.8 12:27:47 10° SSW 12:30:53 54° W 12:34:02 10° N
Spot 4 Rocket 4.4 12:27:16 10° N 12:32:04 41° WNW 12:36:51 10° SW
Chandra Rocket (1) 4.3 12:30:22 10° WSW 12:33:48 22° S 12:41:07 10° SE
DELTA 2 DEB (DPAF) 4.5 12:29:48 10° SSE 12:34:02 65° ENE 12:38:17 10° N
SAR-Lupe-2 3.6 12:34:07 10° N 12:37:37 55° WNW 12:41:06 10° SSW
SL-08 RB Rocket 4.2 12:34:38 10° N 12:38:54 38° WNW 12:43:11 10° SW
Meteor 1-31 Rocket 3.3 12:35:25 10° NNE 12:39:10 63° E 12:42:56 10° S
Cosmos 2026 Rocket 4.3 12:33:34 10° NNW 12:39:38 48° W 12:45:37 10° SSW
Cosmos 1331 Rocket 4.1 12:34:34 10° NNW 12:39:48 86° ENE 12:44:58 10° SSE
COSMOS 2455 4.2 12:40:15 10° WNW 12:44:16 19° WSW 12:48:17 10° SSW
OAO 3 Rocket 3.2 12:42:52 10° W 12:47:46 81° N 12:52:42 10° E
VEP-3 4.0 12:42:29 10° WSW 12:48:03 38° S 12:54:56 10° ESE
Helios 1B rocket 2.9 12:44:50 10° N 12:48:29 36° WNW 12:52:07 10° SW
USA 281 4.5 12:45:48 10° NNW 12:49:48 17° NW 12:53:48 10° W
Cosmos-2242 3.3 23:39:32 10° SSE 23:43:43 49° E 23:47:54 10° NNE
COSMO-SKYMED 1 3.7 23:43:13 10° NE 23:46:46 24° E 23:50:17 10° SSE
NOSS 3-4 (A) 4.1 23:39:47 10° NNW 23:47:11 85° ENE 23:55:32 10° SSE
NOSS 3-4 (C) 4.0 23:39:56 10° NNW 23:47:15 85° ENE 23:55:30 10° SSE
Cosmos 1544 3.8 23:46:21 10° NNW 23:49:30 49° W 23:52:37 10° S
Hubble Space Telescope 3.0 23:47:02 10° WSW 23:50:12 22° SSW 23:53:22 10° SE
AQUARIUS 4.4 23:47:53 10° SSE 23:52:09 48° ENE 23:56:28 10° N
Cosmos 2151 3.6 23:48:11 10° NNW 23:52:24 61° W 23:56:34 10° S
Cosmos 1140 Rocket 4.3 23:48:01 10° N 23:52:29 29° ENE 23:56:54 10° SE
USA 234 3.5 23:46:02 10° NE 23:52:31 69° NW 23:59:00 10° SW
Cosmos 1500 3.2 23:50:43 10° N 23:54:14 77° W 23:57:45 10° S
Cosmos 2221 4.2 23:52:09 10° ESE 23:54:24 14° E 23:56:39 10° NE
